Terminal Aerodrome Forecast
Issued by NWS

Home | Current Version | Previous Version | Text Only | Print | Product List | Glossary On
Versions: 1 2 3 4 5 6 7 8 9 10 11 12
835
FTUS46 KMTR 232334
TAFSJC
TAF
KSJC 232334Z 2400/2424 30013KT P6SM SKC
     FM240400 30006KT P6SM SKC
     FM241100 VRB04KT P6SM BKN010
     FM241600 29003KT P6SM FEW015 SCT180
     FM242000 30011KT P6SM BKN180=

USA.gov is the U.S. government's official web portal to all federal, state and local government web resources and services.